Home   Weather   Woodbridge Crossing   Past weeks
Flag for USA

Past Weather in Woodbridge Crossing, Arizona, USA — Yesterday and Last 2 Weeks

Now
63 °F

Clear.


Feels Like: 63 °F
Forecast: 83 / 58 °F
Wind: 8 mph from Northeast

Location: Mesa / Falcon Field

Current Time: Mar 19, 2019 at 3:31:50 am

Latest Report: Mar 19, 2019 at 2:54 am


Visibility: 10 mi

Pressure: 29.90 "Hg

Humidity: 38%

Dew Point: 37 °F

Location of Woodbridge CrossingLocation

Past Weather in Woodbridge Crossing — Graph

°F

Woodbridge Crossing Temperature Yesterday

Maximum temperature yesterday: 82 °F (at 2:54 pm)
Minimum temperature yesterday: 59 °F (at 5:54 am)
Average temperature yesterday: 70 °F

High & Low Weather Summary for the Past Weeks

 TemperatureHumidityPressure
High82 °F (Mar 6, 3:54 pm)93% (Mar 12, 3:54 am)30.14 "Hg (Mar 12, 3:54 am)
Low43 °F (Mar 14, 2:54 am)11% (Mar 18, 5:54 pm)29.67 "Hg (Mar 12, 4:54 pm)
Average61 °F42%29.90 "Hg
* Reported Mar 4 1:54 am — Mar 19 1:54 am, Woodbridge Crossing. Weather by CustomWeather, © 2019

Note: Actual official high and low records may vary slightly from our data, if they occured in-between our weather recording intervals... More about our weather records

Advertising

Woodbridge Crossing Weather History for the Previous 24 Hours

Scroll right to see more
 ConditionsComfort  
Time TempWeatherWind HumidityBarometerVisibility
1:54 am
Tue, Mar 19
63 °FClear.10 mph38%29.91 "Hg10 mi
12:54 am63 °FClear.10 mph38%29.91 "Hg10 mi
11:54 pm
Mon, Mar 18
65 °FClear.9 mph39%29.91 "Hg10 mi
10:54 pm67 °FClear.No wind36%29.90 "Hg10 mi
9:54 pm67 °FClear.6 mph37%29.90 "Hg10 mi
8:54 pm69 °FClear.5 mph36%29.89 "Hg10 mi
7:54 pm72 °FClear.No wind30%29.88 "Hg10 mi
6:54 pm78 °FClear.5 mph19%29.88 "Hg10 mi
5:54 pm81 °FSunny.No wind11%29.86 "Hg10 mi
4:54 pm81 °FSunny.8 mph13%29.86 "Hg10 mi
3:54 pm80 °FSunny.5 mph15%29.88 "Hg10 mi
2:54 pm82 °FSunny.No wind16%29.88 "Hg10 mi
1:54 pm80 °FSunny.7 mph19%29.91 "Hg10 mi
12:54 pm79 °FSunny.N/A20%29.94 "Hg10 mi
11:54 am77 °FSunny.6 mph22%29.96 "Hg10 mi
10:54 am76 °FSunny.7 mph24%29.98 "Hg10 mi
9:54 am73 °FSunny.12 mph28%29.98 "Hg10 mi
8:54 am66 °FSunny.10 mph39%29.98 "Hg10 mi
7:54 am62 °FSunny.10 mph43%29.98 "Hg10 mi
6:54 am59 °FSunny.8 mph49%29.96 "Hg10 mi
5:54 am59 °FClear.7 mph49%29.95 "Hg10 mi
4:54 am60 °FClear.6 mph47%29.93 "Hg10 mi
3:54 am60 °FClear.5 mph47%29.92 "Hg10 mi
Weather by CustomWeather, © 2019

See weather overview